Weather History for Perth, WE

Change the Weather History Date:

Wednesday, April 17, 2013

  Actual Average Record
Temperature  
Mean Temperature 71 °F -  
Max Temperature 80 °F 74 °F 84 °F (1997)
Min Temperature 62 °F 53 °F 39 °F (2006)
Cooling Degree Days 6    
Growing Degree Days 21 (Base 50)    
Moisture  
Dew Point 62 °F    
Average Humidity 75    
Maximum Humidity 94    
Minimum Humidity 41    
Precipitation  
Precipitation 0.00 in 0.10 in - ()
Sea Level Pressure  
Sea Level Pressure 29.92 in    
Wind  
Wind Speed 5 mph ()    
Max Wind Speed 12 mph    
Max Gust Speed -    
Visibility 8.5 miles    
Events Rain    
Averages and records for this station are not official NWS values.
T = Trace of Precipitation, MM = Missing Value Source: Averaged Metar Reports

Daily Weather History Graph

Daily Weather History Graph

Search for Another Location

Airport:

Trip Planner

Search our weather history database for the weather conditions in past years. The results will help you decide how hot, cold, wet, or windy it might be!

Date:

Astronomy

Apr. 17, 2013 Rise Set
Actual Time 6:38 AM AWST 5:52 PM AWST
Civil Twilight 6:13 AM AWST 6:17 PM AWST
Nautical Twilight 5:44 AM AWST 6:46 PM AWST
Astronomical Twilight 5:16 AM AWST 7:14 PM AWST
Moon 12:15 PM AWST (4/17) 11:00 PM AWST (4/17)
Length of Visible Light 12h 04m
Length of Day
11h 14m
Waxing Crescent, 37% of the Moon is Illuminated
Apr 17
Waxing Crescent
Apr 18
First Quarter
Apr 26
Full
May 2
Last Quarter
May 10
New

Hourly Weather History & Observations

Time (AWST) Temp. Dew Point Humidity Pressure Visibility Wind Dir Wind Speed Gust Speed Precip Events Conditions
12:00 AM 67 °F 65 °F 89% 29.95 in 19 mi WSW 4.6 mph - -   Partly Cloudy
12:00 AM 66.2 °F 64.4 °F 94% 29.95 in - WSW 4.6 mph - N/A   Clear
12:30 AM 66.2 °F 64.4 °F 94% 29.95 in - SSW 4.6 mph - N/A   Clear
1:00 AM 66.2 °F 64.4 °F 94% 29.92 in - ESE 5.8 mph - N/A   Clear
1:30 AM 66.2 °F 64.4 °F 94% 29.95 in - East 4.6 mph - N/A   Clear
2:00 AM 67 °F 65 °F 89% 29.94 in - East 1.2 mph - -  
2:00 AM 66.2 °F 64.4 °F 94% 29.95 in - East 1.2 mph - N/A   Clear
2:30 AM 66.2 °F 64.4 °F 94% 29.92 in - Calm Calm - N/A   Clear
3:00 AM 66 °F 64 °F 91% 29.94 in 16 mi Calm Calm - -   Partly Cloudy
3:00 AM 66.2 °F 64.4 °F 94% 29.92 in - Calm Calm - N/A   Clear
3:30 AM 66.2 °F 64.4 °F 94% 29.92 in 6.2 mi East 4.6 mph - N/A Rain Light Rain
4:00 AM 68.0 °F 64.4 °F 88% 29.92 in - East 5.8 mph - N/A   Clear
4:30 AM 68.0 °F 62.6 °F 83% 29.95 in 6.2 mi NE 1.2 mph - N/A Rain Light Rain
5:00 AM 67 °F 64 °F 86% 29.96 in - NE 5.8 mph - -  
5:00 AM 66.2 °F 64.4 °F 94% 29.95 in 6.2 mi NE 5.8 mph - N/A Rain Light Rain
5:30 AM 68.0 °F 62.6 °F 83% 29.95 in - ENE 5.8 mph - N/A   Clear
6:00 AM 68 °F 62 °F 75% 29.96 in 16 mi NE 6.9 mph - -   Partly Cloudy
6:00 AM 68.0 °F 62.6 °F 83% 29.95 in - NE 6.9 mph - N/A   Clear
6:30 AM 68.0 °F 60.8 °F 78% 29.95 in - NE 6.9 mph - N/A   Clear
7:00 AM 68.0 °F 60.8 °F 78% 29.95 in - NE 8.1 mph - N/A   Clear
7:30 AM 68.0 °F 60.8 °F 78% 29.95 in - NE 8.1 mph - N/A   Clear
8:00 AM 69 °F 61 °F 70% 29.96 in - NE 11.5 mph - -  
8:00 AM 69.8 °F 60.8 °F 73% 29.95 in - NE 11.5 mph - N/A   Clear
8:30 AM 69.8 °F 62.6 °F 78% 29.95 in - ENE 8.1 mph - N/A   Clear
9:00 AM 70 °F 62 °F 69% 29.97 in 16 mi ENE 8.1 mph - - Rain Light Rain Showers
9:00 AM 69.8 °F 62.6 °F 78% 29.95 in - ENE 8.1 mph - N/A   Clear
9:30 AM 71.6 °F 62.6 °F 73% 29.95 in - ENE 9.2 mph - N/A   Clear
10:00 AM 73.4 °F 62.6 °F 69% 29.95 in 6.2 mi North 5.8 mph - N/A   Overcast
10:30 AM 71.6 °F 62.6 °F 73% 29.95 in 6.2 mi East 4.6 mph - N/A Rain Light Rain Showers
11:00 AM 72 °F 63 °F 65% 29.94 in - East 5.8 mph - -  
11:00 AM 71.6 °F 62.6 °F 73% 29.92 in 6.2 mi East 5.8 mph - N/A Rain Light Rain Showers
11:30 AM 73.4 °F 62.6 °F 69% 29.92 in 6.2 mi ENE 6.9 mph - N/A   Mostly Cloudy
12:00 PM 74 °F 63 °F 60% 29.93 in 16 mi NNE 6.9 mph - -   Scattered Clouds
12:00 PM 73.4 °F 62.6 °F 69% 29.92 in 6.2 mi NNE 6.9 mph - N/A   Mostly Cloudy
12:30 PM 75.2 °F 62.6 °F 65% 29.92 in 6.2 mi North 5.8 mph - N/A   Mostly Cloudy
1:00 PM 77.0 °F 62.6 °F 61% 29.89 in 6.2 mi NE 4.6 mph - N/A   Mostly Cloudy
1:30 PM 77.0 °F 60.8 °F 57% 29.89 in 6.2 mi NW 5.8 mph - N/A   Mostly Cloudy
2:00 PM 78 °F 61 °F 45% 29.88 in - North 5.8 mph - -  
2:00 PM 78.8 °F 60.8 °F 54% 29.86 in 6.2 mi North 5.8 mph - N/A   Mostly Cloudy
2:30 PM 78.8 °F 59.0 °F 51% 29.86 in 6.2 mi NNW 3.5 mph - N/A   Mostly Cloudy
3:00 PM 79 °F 59 °F 41% 29.88 in 19 mi WNW 4.6 mph - -   Partly Cloudy
3:00 PM 78.8 °F 59.0 °F 51% 29.86 in 6.2 mi WNW 4.6 mph - N/A   Mostly Cloudy
3:30 PM 78.8 °F 59.0 °F 51% 29.89 in 6.2 mi West 6.9 mph - N/A   Mostly Cloudy
4:00 PM 77.0 °F 60.8 °F 57% 29.86 in 6.2 mi West 9.2 mph - N/A   Scattered Clouds
4:30 PM 77.0 °F 62.6 °F 61% 29.86 in 6.2 mi WSW 8.1 mph - N/A   Partly Cloudy
5:00 PM 78 °F 62 °F 48% 29.88 in - SW 6.9 mph - -  
5:00 PM 77.0 °F 62.6 °F 61% 29.86 in 6.2 mi SW 6.9 mph - N/A   Partly Cloudy
5:30 PM 75.2 °F 60.8 °F 61% 29.89 in 6.2 mi West 8.1 mph - N/A   Partly Cloudy
6:00 PM 74 °F 62 °F 57% 29.89 in 19 mi WSW 8.1 mph - -   Partly Cloudy
6:00 PM 75.2 °F 62.6 °F 65% 29.89 in 6.2 mi WSW 8.1 mph - N/A   Partly Cloudy
6:30 PM 73.4 °F 60.8 °F 65% 29.89 in 6.2 mi WSW 8.1 mph - N/A   Scattered Clouds
7:00 PM 73.4 °F 60.8 °F 65% 29.89 in 6.2 mi West 6.9 mph - N/A   Scattered Clouds
7:30 PM 71.6 °F 62.6 °F 73% 29.92 in 6.2 mi West 4.6 mph - N/A   Scattered Clouds
8:00 PM 71 °F 63 °F 70% 29.93 in - SW 5.8 mph - -  
8:00 PM 71.6 °F 62.6 °F 73% 29.92 in 6.2 mi SW 5.8 mph - N/A   Scattered Clouds
8:30 PM 66.2 °F 62.6 °F 88% 29.92 in 6.2 mi SW 2.3 mph - N/A   Partly Cloudy
9:00 PM 65 °F 62 °F 89% 29.94 in 19 mi Calm Calm - -   Partly Cloudy
9:00 PM 64.4 °F 62.6 °F 94% 29.92 in 6.2 mi Calm Calm - N/A   Scattered Clouds
9:30 PM 66.2 °F 62.6 °F 88% 29.95 in 6.2 mi South 5.8 mph - N/A   Scattered Clouds
10:00 PM 64.4 °F 62.6 °F 94% 29.92 in 6.2 mi SSE 5.8 mph - N/A   Scattered Clouds
10:30 PM 64.4 °F 62.6 °F 94% 29.92 in 6.2 mi ENE 5.8 mph - N/A   Scattered Clouds
11:00 PM 62.6 °F 60.8 °F 94% 29.92 in 6.2 mi NNE 5.8 mph - N/A   Scattered Clouds
11:30 PM 64.4 °F 62.6 °F 94% 29.89 in 6.2 mi NNE 6.9 mph - N/A   Partly Cloudy